Regional Weather Roundup
Issued by NWS

Home | Current Version | Previous Version | Text Only | Print | Product List | Glossary Off
Versions: 1 2 3 4 5 6 7 8 9 10 11 12 13 14 15 16 17 18 19 20 21 22 23 24 25 26 27 28 29 30 31 32 33 34 35 36 37 38 39 40 41 42 43 44 45 46 47 48 49 50

000
ASUS43 KLMK 210010
RWRKY
KENTUCKY REGIONAL WEATHER ROUNDUP
NATIONAL WEATHER SERVICE LOUISVILLE KY
700 PM EST TUE FEB 20 2018

NOTE "FAIR" INDICATES FEW OR NO CLOUDS BELOW 12,000 FEET
WITH NO SIGNIFICANT WEATHER AND/OR OBSTRUCTIONS TO VISIBILITY.

KYZ001>023-026-027-061>063-070>075-210100-
WESTERN AND SOUTH CENTRAL KENTUCKY

CITY           SKY/WX    TMP DP  RH WIND       PRES   REMARKS
PADUCAH        CLOUDY    74  60  61 S10G23    30.04S
HENDERSON      FAIR      71  59  65 S14       30.08S
OWENSBORO      CLOUDY    71  60  68 S13       30.11S
HOPKINSVILLE   MOCLDY    73  59  59 S10       30.13R
BOWLING GREEN  MOCLDY    75  59  57 S13       30.16R
GLASGOW        FAIR      73  55  54 S6        30.18R
$$

KYZ024-025-028>034-038-045-046-053-210100-
NORTH CENTRAL KENTUCKY

CITY           SKY/WX    TMP DP  RH WIND       PRES   REMARKS
LOUISVILLE/SDF CLOUDY    75  57  53 S9        30.13S
LOUISVILLE/LOU MOCLDY    75  58  55 SW10      30.14R
FORT KNOX      CLOUDY    72  57  60 S9        30.15S
$$

KYZ035>037-039>044-047>052-055>060-089>105-210100-
NORTHEAST KENTUCKY

CITY           SKY/WX    TMP DP  RH WIND       PRES   REMARKS
LEXINGTON      FAIR      71  56  58 S13       30.19R
COVINGTON      MOCLDY    73  56  54 S13G21    30.12S
FRANKFORT      FAIR      74  54  49 S9        30.16R
$$

KYZ054-064>069-076>088-106>120-210100-
SOUTHEAST KENTUCKY

CITY           SKY/WX    TMP DP  RH WIND       PRES   REMARKS
JACKSON        MOCLDY    73  52  47 S3        30.26R
LONDON         CLOUDY    71  54  54 S5        30.26S
SOMERSET       CLOUDY    72  55  56 MISG      30.25S
MIDDLESBORO    CLOUDY    72  54  52 SW5       30.30R
MONTICELLO     NOT AVBL
$$





USA.gov is the U.S. government's official web portal to all federal, state and local government web resources and services.